Regional Weather Roundup
Issued by NWS Cleveland, OH

Home | Current Version | Previous Version | Graphics & Text | Print | Product List | Glossary On
Versions: 1 2 3 4 5 6 7 8 9 10 11 12 13 14 15 16 17 18 19 20 21 22 23 24 25 26 27 28 29 30 31 32 33 34 35 36 37 38 39 40 41 42 43 44 45 46 47 48 49 50
000
ASUS41 KCLE 260902
RWRCLE
OHIO REGIONAL WEATHER ROUNDUP
NATIONAL WEATHER SERVICE CLEVELAND, OH
500 AM EDT WED JUL 26 2017

NOTE: "FAIR" INDICATES FEW OR NO CLOUDS BELOW 12,000 FEET WITH NO
SIGNIFICANT WEATHER AND/OR OBSTRUCTIONS TO VISIBILITY.

OHZ001>008-015>018-024>027-034-035-043-044-261000-
   NORTHWEST OHIO

CITY           SKY/WX    TMP DP  RH WIND       PRES   REMARKS
DEFIANCE       PTCLDY   N/A N/A N/A CALM      30.18F
FINDLAY        PTCLDY    61  57  87 CALM      30.18S
TOLEDO EXPRESS MOCLDY    58  58 100 CALM      30.17F
TOLEDO EXEC    PTCLDY    61  59  93 SE3       30.19F
LIMA           CLEAR     57  57 100 SE3       30.19S
$$

OHZ009>014-019>023-028>033-038-089-261000-
   NORTHEAST OHIO

CITY           SKY/WX    TMP DP  RH WIND       PRES   REMARKS
CLE-HOPKINS    PTCLDY    60  55  83 CALM      30.20S
CLE-LAKEFRONT  CLEAR     61  55  81 S6        30.18S
CUY CO. ARPT   NOT AVBL
LORAIN-ELYRIA  CLEAR     54  49  83 CALM      30.20R
ASHTABULA      CLEAR     51  51 100 CALM      30.21S
AKRON-CANTON   CLEAR     56  52  86 CALM      30.19S
WOOSTER        CLEAR     54  54 100 CALM      30.20S
MANSFIELD      CLEAR     58  57  97 S3        30.20R
YOUNGSTOWN     CLEAR     54  52  93 E6        30.20R
$$

OHZ042-051>053-060>062-070>072-077>081-261000-
  SOUTHWEST OHIO

CITY           SKY/WX    TMP DP  RH WIND       PRES   REMARKS
CINC-COVINGTON CLEAR     63  61  93 SE3       30.18R
CINC-LUNKEN    CLEAR     59  59 100 NE3       30.18R
HAMILTON       CLEAR     58  58 100 CALM      30.18R
DAYTON         CLEAR     59  56  89 N5        30.20R
WRIGHT-PAT AFB CLEAR     60  58  93 CALM      30.19R
DAYTON GENERAL CLEAR     60  57  89 CALM      30.18R
WILMINGTON     CLEAR     56  56 100 CALM      30.17S
$$

OHZ036-037-039>041-045>050-054>059-063>069-073>076-082>088-261000-
  CENTRAL AND SOUTHEAST OHIO

CITY           SKY/WX    TMP DP  RH WIND       PRES   REMARKS
COLUMBUS       CLEAR     60  59  96 N5        30.18R
OSU AIRPORT    CLEAR     59  59 100 CALM      30.18R
BOLTON FIELD   CLEAR     56  56 100 CALM      30.19R
RICKENBACK AFB CLEAR     58  58 100 CALM      30.18R
NEWARK         FOG       56  55  97 CALM      30.18R VSB 1/2
MARION         PTCLDY    57  54  89 CALM      30.21R
LANCASTER      FOG       54  54 100 CALM      30.18R VSB 1/2
ZANESVILLE     PTCLDY    57  55  93 CALM      30.18R FOG
NEW PHILLY     NOT AVBL
$$




USA.gov is the U.S. government's official web portal to all federal, state and local government web resources and services.